Regional Weather Roundup
Issued by NWS

Home | Current Version | Previous Version | Graphics & Text | Print | Product List | Glossary On
Versions: 1 2 3 4 5 6 7 8 9 10 11 12 13 14 15 16 17 18 19 20 21 22 23 24 25 26 27 28 29 30 31 32 33 34 35 36 37 38 39 40 41 42 43 44 45 46 47 48 49 50
563
ASUS43 KLOT 250404
RWRIL

ILLINOIS REGIONAL WEATHER ROUNDUP
NATIONAL WEATHER SERVICE CHICAGO/ROMEOVILLE IL
1100 PM CDT SAT SEP 24 2016

NOTE: "FAIR" INDICATES FEW OR NO CLOUDS BELOW 12,000 FEET WITH NO
SIGNIFICANT WEATHER AND/OR OBSTRUCTIONS TO VISIBILITY.

* THESE STATIONS ARE NOT UNDER NWS QUALITY CONTROL. THEY ALSO MAY NOT
  REPORT WEATHER SUCH AS PRECIPITATION OR FOG.

ILZ001-002-007-009-015-016-024-250500-
NORTHWEST ILLINOIS

CITY           SKY/WX    TMP DP  RH WIND       PRES   REMARKS
MOLINE         CLEAR     71  66  84 E7        30.06R
STERLING*      CLEAR     67  65  93 E8        30.09R
$$

ILZ003-004-008-010-011-017-018-250500-
NORTH CENTRAL ILLINOIS

CITY           SKY/WX    TMP DP  RH WIND       PRES   REMARKS
ROCKFORD       CLEAR     65  62  90 E7        30.14R
ROCHELLE*      CLEAR     65  63  93 E6        30.12S
$$

ILZ005-006-012>014-019>023-250500-
NORTHEAST ILLINOIS

CITY           SKY/WX    TMP DP  RH WIND       PRES   REMARKS
CHICAGO-OHARE  CLEAR     69  64  84 E8        30.13S
CHICAGO-MIDWAY CLEAR     72  63  73 E8        30.13S
AURORA         CLEAR     66  63  90 NE5       30.13R
LANSING*       CLEAR     67  65  93 E5        30.14R
WAUKEGAN       PTCLDY    68  63  84 E8        30.13F
DUPAGE AIRPORT CLEAR     66  62  87 E6        30.13S
KANKAKEE*      CLEAR     67  64  91 E5        30.13R
WHEELING       CLEAR     68  64  87 E5        30.14F
NORTHERLY ISL    N/A     70  65  84 E9          N/A
$$

LMZ740>746-250500-
SOUTHERN LAKE MICHIGAN

STATION/POSITION SKY/WX   TEMP    WIND        PRES    VSBY  WAVE
                          AIR SEA DIR/SP/G                  HT/PER
                          (F)     (DEG/KT/KT) (MB)    (MI)  (FT/S)
SOUTHERN BUOY              70 72  100/ 16/ 17 1020.7          2/ 4
WILMETTE HARBOR            69 65  120/ 10/ 14   N/A           3/ 4
HARRISON CRIB              72     100/ 15/ 16   N/A
BURNHAM HARBOR             70     100/  7/ 11   N/A
CALUMET HARBOR             70      90/  7/ 10 1019.9R
BURNS HARBOR               65      70/  7/  9 1020.7S
MICHIGAN CITY              67      50/  7/  8   N/A
MICHIGAN CITY 6N           69 70   80/ 10/ 12   N/A           1/ 2
ST. JOSEPH                 67 70   90/ 12/ 14 1020.9R         1
$$

ILZ025>027-034>036-040-047-049-050-058-095>099-250500-
WEST-CENTRAL ILLINOIS

CITY           SKY/WX    TMP DP  RH WIND       PRES   REMARKS
QUINCY         CLEAR     75  66  73 S7        30.04S
GALESBURG*     CLEAR     73  66  80 E7        30.06R
MACOMB*        CLEAR     70  67  89 CALM      30.07R
$$

ILZ028>032-037-038-041>044-048-051>054-059>061-250500-
CENTRAL ILLINOIS

CITY           SKY/WX    TMP DP  RH WIND       PRES   REMARKS
BLOOMINGTON    CLEAR     72  67  84 SE12      30.11R
DECATUR        CLEAR     69  62  78 E5        30.10R
PEORIA         CLEAR     75  68  78 E8        30.06S
LINCOLN*       CLEAR     70  66  88 CALM      30.07S
SPRINGFIELD    CLEAR     70  64  81 CALM      30.06S
TAYLORVILLE    NOT AVBL
$$

ILZ033-039-045-046-055>057-062-063-250500-
EAST-CENTRAL ILLINOIS

CITY           SKY/WX    TMP DP  RH WIND       PRES   REMARKS
CHAMPAIGN      CLEAR     71  66  84 E7        30.11R
MATTOON        CLEAR     71  66  84 SE5       30.09R
$$

ILZ079-100>102-250500-
SOUTHWEST ILLINOIS

CITY           SKY/WX    TMP DP  RH WIND       PRES   REMARKS
ALTON          CLEAR     69  67  92 E5        30.06S
BELLEVILLE     CLEAR     71  71 100 N2        30.05R
CAHOKIA*       CLEAR     71  67  87 CALM      30.04S
SPARTA*        CLEAR     71  68  91 CALM      30.07R
$$

ILZ064>066-069>071-074>076-080>082-084>086-088>090-092>094-250500-
SOUTH-CENTRAL ILLINOIS

CITY           SKY/WX    TMP DP  RH WIND       PRES   REMARKS
CARBONDALE     CLEAR     70  70 100 CALM      30.06R
MT. VERNON     CLEAR     68  63  83 CALM      30.08R
CENTRALIA*     CLEAR     70  69  97 CALM      30.06R
SALEM*         CLEAR     72  68  87 CALM      30.07R
METROPOLIS*    CLEAR     71  69  95 CALM      30.06R
$$

ILZ067-068-072-073-078-083-087-091-250500-
SOUTHEAST ILLINOIS

CITY           SKY/WX    TMP DP  RH WIND       PRES   REMARKS
LAWRENCEVILLE  CLEAR     72  66  81 CALM      30.08R
FLORA*         CLEAR     71  68  90 CALM      30.07S
HARRISBURG*    CLEAR     71  69  95 CALM      30.07R
ROBINSON*      CLEAR     66  65  97 CALM      30.09R
$$

ABBREVIATIONS USED IN REMARKS
   TC - TEMPERATURE IN CELSIUS
  WCI - WIND CHILL INDEX
   HX - HEAT INDEX
  VSB - VISIBILITY
$$





USA.gov is the U.S. government's official web portal to all federal, state and local government web resources and services.